Location: Cosy Dell
(34.2789°N, 117.4537°W)
Time: 21:11:44
(UTC+00:00)

Cosmos 2278 Rocket - Pass Details

Date: 14 July 2020
Orbit: 841 x 845 km, 71.0° (Epoch: 13 August)

Event Time Altitude Azimuth Distance (km) Brightness Sun altitude
Rises 05:21:00 0° 333° (NNW) 3,406 6.7 -23.1°
Reaches altitude 10° 05:23:30 10° 329° (NNW) 2,467 5.7 -23.4°
Maximum altitude 05:29:00 55° 254° (WSW) 1,006 2.6 -24.1°
Enters shadow 05:30:38 41° 203° (SSW) 1,206 2.7 -24.3°
